Location: Unspecified
(0.0000°N, 0.0000°E)
Time: 09:51:48
(UTC+00:00)

Vanguard 2 - Pass Details

Date: 21 October 2021
Orbit: 554 x 2936 km, 32.9° (Epoch: 06 December)

Event Time Altitude Azimuth Distance (km) Brightness Sun altitude
Rises 13:37:57 0° 250° (WSW) 3,591 11.4 59.8°
Reaches altitude 10° 13:41:50 10° 224° (SW) 3,044 11.2 58.9°
Maximum altitude 13:45:35 14° 194° (SSW) 3,131 11.1 58.0°
Drops below altitude 10° 13:50:11 10° 166° (SSE) 3,911 11.3 56.9°
Sets 13:56:44 0° 144° (SE) 5,523 11.8 55.4°
